Rochelle, IL

10:12 PM CST on December 10, 2016 (GMT -0600)
Rochelle

Weather History for KRPJ - May, 2012

Change the Weather History Date:

Thursday, May 3, 2012

  Actual Average (KRFD) Record (KRFD)
Temperature  
Mean Temperature 73 °F -  
Max Temperature 83 °F 64 °F 91 °F (1938)
Min Temperature 63 °F 41 °F 26 °F (2005)
Cooling Degree Days 8    
Growing Degree Days 23 (Base 50)    
Moisture  
Dew Point 65 °F    
Average Humidity 78    
Maximum Humidity 93    
Minimum Humidity 54    
Precipitation  
Precipitation 0.00 in - - ()
Sea Level Pressure  
Sea Level Pressure 29.87 in    
Wind  
Wind Speed 13 mph (SSW)    
Max Wind Speed 21 mph    
Max Gust Speed 25 mph    
Visibility 10 miles    
Events Rain , Thunderstorm    
Averages and records for this station are not official NWS values.
T = Trace of Precipitation, MM = Missing Value Source: NWS Daily Summary

Daily Weather History Graph

Daily Weather History Graph

Search for Another Location

Airport or City:

Trip Planner

Search our weather history database for the weather conditions in past years. The results will help you decide how hot, cold, wet, or windy it might be!

Date:

Astronomy

May. 03, 2012 Rise Set
Actual Time 5:49 AM CDT 7:57 PM CDT
Civil Twilight 5:18 AM CDT 8:28 PM CDT
Nautical Twilight 4:41 AM CDT 9:06 PM CDT
Astronomical Twilight 3:59 AM CDT 9:47 PM CDT
Moon 5:19 PM CDT (5/3) 3:55 AM CDT (5/3)
Length of Visible Light 15h 09m
Length of Day
14h 08m
Waxing Gibbous, 91% of the Moon is Illuminated
May 3
Waxing Gibbous
May 5
Full
May 12
Last Quarter
May 20
New
May 28
First Quarter

Hourly Weather History & Observations

Time (CDT) Temp. Heat Index Dew Point Humidity Pressure Visibility Wind Dir Wind Speed Gust Speed Precip Events Conditions
12:15 AM 67.1 °F - 63.0 °F 87% 29.87 in 10.0 mi SSE 12.7 mph - N/A   Unknown
12:35 AM 66.6 °F - 62.8 °F 88% 29.86 in 10.0 mi SSE 12.7 mph - N/A   Unknown
12:55 AM 66.0 °F - 62.8 °F 89% 29.86 in 10.0 mi South 10.4 mph - N/A   Unknown
1:15 AM 67.8 °F - 63.3 °F 85% 29.85 in 10.0 mi South 15.0 mph - N/A   Unknown
1:35 AM 67.1 °F - 63.0 °F 87% 29.84 in 10.0 mi South 13.8 mph - N/A   Unknown
1:55 AM 67.1 °F - 63.0 °F 87% 29.84 in 10.0 mi SSW 13.8 mph - N/A   Unknown
2:15 AM 66.6 °F - 62.8 °F 88% 29.84 in 10.0 mi South 13.8 mph - N/A   Unknown
2:35 AM 66.4 °F - 62.8 °F 88% 29.84 in 10.0 mi South 11.5 mph - N/A   Unknown
2:55 AM 66.2 °F - 62.6 °F 88% 29.84 in 10.0 mi South 12.7 mph - N/A   Unknown
3:15 AM 66.0 °F - 62.6 °F 89% 29.85 in 10.0 mi South 12.7 mph - N/A   Unknown
3:35 AM 65.5 °F - 62.4 °F 90% 29.84 in 10.0 mi South 11.5 mph - N/A   Unknown
3:55 AM 64.9 °F - 62.1 °F 90% 29.84 in 10.0 mi South 10.4 mph - N/A   Unknown
4:15 AM 64.4 °F - 61.9 °F 92% 29.85 in 10.0 mi South 9.2 mph - N/A   Unknown
4:35 AM 64.4 °F - 61.7 °F 91% 29.86 in 10.0 mi South 10.4 mph - N/A   Unknown
4:55 AM 64.0 °F - 61.7 °F 92% 29.86 in 10.0 mi South 8.1 mph - N/A   Unknown
5:15 AM 63.9 °F - 61.7 °F 93% 29.87 in 10.0 mi South 9.2 mph - N/A   Unknown
5:35 AM 64.0 °F - 61.7 °F 92% 29.88 in 10.0 mi South 9.2 mph - N/A   Unknown
5:55 AM 64.2 °F - 61.7 °F 91% 29.88 in 10.0 mi South 10.4 mph - N/A   Unknown
6:15 AM 64.4 °F - 61.7 °F 91% 29.89 in 10.0 mi South 10.4 mph - N/A   Unknown
6:35 AM 65.5 °F - 62.6 °F 90% 29.90 in 10.0 mi South 10.4 mph - N/A   Unknown
6:55 AM 66.6 °F - 63.5 °F 90% 29.90 in 10.0 mi SSW 11.5 mph - N/A   Unknown
7:15 AM 67.1 °F - 63.7 °F 89% 29.90 in 10.0 mi South 12.7 mph - N/A   Unknown
7:35 AM 67.5 °F - 64.2 °F 89% 29.90 in 10.0 mi South 12.7 mph - N/A   Unknown
7:55 AM 69.1 °F - 65.3 °F 88% 29.90 in 10.0 mi South 13.8 mph - N/A   Unknown
8:15 AM 70.2 °F - 65.8 °F 86% 29.90 in 10.0 mi South 15.0 mph - N/A   Unknown
8:35 AM 71.2 °F - 66.2 °F 84% 29.89 in 10.0 mi SSW 18.4 mph 24.2 mph N/A   Unknown
8:55 AM 72.1 °F - 66.7 °F 83% 29.89 in 10.0 mi SSW 19.6 mph 25.3 mph N/A   Unknown
9:15 AM 73.0 °F - 67.3 °F 82% 29.90 in 10.0 mi SSW 19.6 mph 25.3 mph N/A   Unknown
9:35 AM 72.9 °F - 67.1 °F 82% 29.91 in 10.0 mi SSW 19.6 mph - N/A   Unknown
10:55 AM - - - N/A% 29.91 in - SW 20.7 mph - N/A   Unknown
11:35 AM 77.2 °F - 68.4 °F 74% 29.90 in 10.0 mi SW 17.3 mph 25.3 mph N/A   Unknown
11:55 AM 77.2 °F - 68.4 °F 74% 29.90 in 10.0 mi SW 19.6 mph - N/A   Unknown
12:15 PM 78.6 °F - 69.3 °F 73% 29.90 in 10.0 mi SSW 18.4 mph 24.2 mph N/A   Unknown
12:55 PM 79.2 °F - 68.9 °F 71% 29.90 in 10.0 mi SSW 18.4 mph 24.2 mph N/A   Unknown
1:15 PM 79.5 °F - 69.3 °F 71% 29.88 in 10.0 mi SSW 16.1 mph 21.9 mph N/A   Unknown
1:55 PM 79.9 °F - 69.6 °F 71% 29.88 in 10.0 mi South 19.6 mph - N/A   Unknown
2:15 PM 80.8 °F 83.8 °F 68.7 °F 67% 29.86 in 10.0 mi South 17.3 mph - N/A   Unknown
2:35 PM 81.1 °F 84.4 °F 69.1 °F 67% 29.86 in 10.0 mi SW 13.8 mph 20.7 mph N/A   Unknown
2:55 PM 81.5 °F 84.2 °F 67.8 °F 63% 29.86 in 10.0 mi SSW 9.2 mph 12.7 mph N/A   Unknown
3:15 PM 82.4 °F 85.0 °F 67.3 °F 60% 29.85 in 10.0 mi SSW 12.7 mph 19.6 mph N/A   Unknown
3:35 PM 81.1 °F 83.2 °F 66.2 °F 60% 29.85 in 10.0 mi SSW 12.7 mph - N/A   Unknown
3:55 PM 81.9 °F 84.1 °F 66.0 °F 59% 29.86 in 10.0 mi SW 11.5 mph - N/A   Unknown
4:15 PM 83.5 °F 85.5 °F 66.0 °F 55% 29.86 in 10.0 mi SSW 11.5 mph - N/A   Unknown
4:35 PM 82.6 °F 84.3 °F 65.1 °F 55% 29.86 in 10.0 mi SW 11.5 mph - N/A   Unknown
4:55 PM 83.3 °F 85.1 °F 65.3 °F 54% 29.88 in 10.0 mi WSW 15.0 mph - N/A   Unknown
5:15 PM 82.0 °F 84.1 °F 66.0 °F 58% 29.87 in 10.0 mi SW 10.4 mph - N/A   Unknown
5:35 PM 81.7 °F 83.5 °F 65.1 °F 57% 29.87 in 10.0 mi WSW 12.7 mph - N/A   Unknown
5:55 PM 82.4 °F 84.4 °F 65.7 °F 57% 29.87 in 10.0 mi SW 12.7 mph - N/A   Unknown
6:15 PM 82.0 °F 84.3 °F 66.2 °F 59% 29.87 in 10.0 mi WSW 11.5 mph - N/A   Unknown
6:35 PM 81.7 °F 84.0 °F 66.4 °F 60% 29.87 in 10.0 mi WSW 10.4 mph - N/A   Unknown
6:55 PM 80.6 °F 82.9 °F 66.9 °F 63% 29.88 in 10.0 mi WSW 12.7 mph - N/A   Unknown
7:15 PM 78.4 °F - 67.8 °F 70% 29.89 in 10.0 mi WSW 9.2 mph - N/A   Unknown
7:35 PM 76.6 °F - 66.7 °F 71% 29.89 in 10.0 mi WSW 8.1 mph - N/A   Unknown
7:55 PM 75.2 °F - 66.6 °F 74% 29.88 in 10.0 mi WSW 6.9 mph - N/A   Unknown
8:35 PM 72.3 °F - 66.4 °F 82% 29.88 in 10.0 mi SW 6.9 mph - N/A   Unknown
9:15 PM 70.7 °F - 66.2 °F 86% 29.88 in 10.0 mi South 9.2 mph - N/A   Unknown
10:15 PM 70.7 °F - 65.7 °F 84% 29.88 in 10.0 mi South 9.2 mph - N/A Thunderstorm Unknown
10:35 PM 70.7 °F - 65.7 °F 84% 29.88 in 10.0 mi South 8.1 mph - N/A   Unknown
10:55 PM 70.2 °F - 65.8 °F 86% 29.88 in 10.0 mi South 8.1 mph - N/A   Unknown
11:15 PM 70.2 °F - 66.0 °F 87% 29.89 in 10.0 mi South 13.8 mph - N/A Rain Light Rain